Waarnemingen

Advertentie
Mijn weer
Karlsborg, Zweden (2544): temperatuur & dauwpunt: 12.01.2021 05:00:00 - 18.01.2021 05:00:00 (CET)Karlsborg, Zweden (2544): windsnelheid & windstoten: 12.01.2021 05:00:00 - 18.01.2021 05:00:00 (CET)Karlsborg, Zweden (2544): windrichting: 12.01.2021 05:00:00 - 18.01.2021 05:00:00 (CET)Karlsborg, Zweden (2544): luchtdruk: 12.01.2021 05:00:00 - 18.01.2021 05:00:00 (CET)Karlsborg, Zweden (2544): zicht: 12.01.2021 05:00:00 - 18.01.2021 05:00:00 (CET)Karlsborg, Zweden (2544): neerslag: 12.01.2021 05:00:00 - 18.01.2021 05:00:00 (CET)
Datum & Tijd tt [°C] td [°C] ff [km/u] ff [kn] fx [km/u] fx [kn] dd ppp [hPa] vv [km] rr [mm]
18.01.2021 05:00:00 -2,0 -4,0 11 6 - - WZW - 10 -
18.01.2021 04:00:00 -2,5 -5,0 5 3 11 6 ZW 1016,4 10 0,0
18.01.2021 03:00:00 -2,3 -5,3 9 5 18 10 ZW 1016,8 10 0,0
18.01.2021 02:00:00 -2,0 -5,7 11 6 18 10 ZW 1016,7 10 0,0
18.01.2021 01:00:00 -2,3 -4,6 13 7 18 10 ZW 1017,3 10 0,0
18.01.2021 00:00:00 -2,3 -4,3 11 6 14 8 WZW 1018,1 10 0,0
17.01.2021 23:00:00 -2,4 -4,3 11 6 18 10 WZW 1018,6 10 0,0
17.01.2021 22:00:00 -2,4 -4,4 11 6 14 8 WZW 1018,8 10 0,0
17.01.2021 21:00:00 -2,4 -4,4 11 6 14 8 WZW 1019,1 10 0,0
17.01.2021 20:00:00 -2,2 -4,4 11 6 18 10 WZW 1019,4 10 0,0
17.01.2021 19:00:00 -2,1 -4,3 11 6 18 10 W 1019,6 10 0,0
17.01.2021 18:00:00 -2,4 -4,0 9 5 18 10 WZW 1019,8 10 0,0
17.01.2021 17:00:00 -2,3 -4,0 8 4 11 6 ZW 1019,9 10 0,0
17.01.2021 16:00:00 -2,4 -4,1 9 5 14 8 W 1020,1 10 0,0
17.01.2021 15:00:00 -1,9 -4,1 11 6 14 8 WZW 1020,0 10 0,0
17.01.2021 14:00:00 -1,8 -4,1 9 5 14 8 WZW 1020,0 10 0,0
17.01.2021 13:00:00 -1,8 -4,0 9 5 14 8 WZW 1020,3 10 0,0
17.01.2021 12:00:00 -1,8 -3,8 4 2 11 6 W 1020,4 10 0,0
17.01.2021 11:00:00 -1,9 -3,5 4 2 7 4 - 1020,6 10 0,0
17.01.2021 10:00:00 -1,6 -3,5 8 4 7 4 NW 1020,3 10 0,0
17.01.2021 09:00:00 -2,0 -3,4 0 0 4 2 N 1019,9 10 0,0
17.01.2021 08:00:00 -1,6 -3,5 0 0 11 6 N 1019,7 10 0,0
17.01.2021 07:00:00 -1,2 -3,4 5 3 14 8 ZO 1019,4 10 0,0
17.01.2021 06:00:00 -1,4 -3,3 8 4 14 8 OZO 1019,3 10 0,0
17.01.2021 05:00:00 -1,3 -3,3 9 5 18 10 OZO 1019,3 10 0,0
17.01.2021 04:00:00 -1,5 -3,8 11 6 18 10 OZO 1019,4 10 0,0
17.01.2021 03:00:00 -2,3 -3,6 4 2 7 4 - 1019,6 10 0,0
17.01.2021 02:00:00 -2,2 -3,8 4 2 7 4 O 1019,8 10 0,0
17.01.2021 01:00:00 -2,2 -3,5 8 4 11 6 N 1019,9 10 0,0
17.01.2021 00:00:00 -2,4 -3,7 4 2 7 4 - 1020,1 10 0,0
16.01.2021 23:00:00 -2,0 -3,6 4 2 7 4 NO 1020,2 10 0,0
16.01.2021 22:00:00 -1,7 -3,3 4 2 7 4 - 1020,3 10 0,0
16.01.2021 21:00:00 -3,0 -4,3 4 2 7 4 - 1020,3 10 0,0
16.01.2021 20:00:00 -3,6 -5,0 4 2 7 4 - 1020,2 10 0,0
16.01.2021 19:00:00 -3,8 -5,3 5 3 11 6 N 1020,5 10 0,0
16.01.2021 18:00:00 -4,0 -5,7 5 3 11 6 N 1020,7 10 0,0
16.01.2021 17:00:00 -3,7 -5,5 5 3 11 6 NW 1020,7 10 0,0
16.01.2021 16:00:00 -3,5 -5,7 5 3 11 6 NW 1020,9 10 0,0
16.01.2021 15:00:00 -3,6 -6,1 8 4 11 6 NNW 1020,7 10 0,0
16.01.2021 14:00:00 -3,7 -6,6 5 3 14 8 NNW 1020,8 10 0,0
16.01.2021 13:00:00 -3,7 -6,8 5 3 11 6 NW 1021,0 10 0,0
16.01.2021 12:00:00 -4,9 -7,3 8 4 11 6 NNO 1021,4 10 0,0
16.01.2021 11:00:00 -5,8 -7,9 2 1 14 8 - 1021,8 10 0,0
16.01.2021 10:00:00 -6,0 -7,8 5 3 22 12 NNW 1022,1 10 0,0
16.01.2021 09:00:00 -5,4 -6,6 9 5 25 14 NNW 1022,4 10 0,0
16.01.2021 08:00:00 -5,3 -6,4 13 7 22 12 NNW 1022,3 10 0,0
16.01.2021 07:00:00 -5,5 -6,6 15 8 22 12 WNW 1022,4 10 0,0
16.01.2021 06:00:00 -6,0 -7,1 18 10 25 14 WNW 1022,7 10 0,0
16.01.2021 05:00:00 -5,8 -7,2 11 6 22 12 W 1023,2 10 0,0
16.01.2021 04:00:00 -7,0 -8,2 15 8 22 12 W 1023,7 10 0,0
16.01.2021 03:00:00 -6,7 -8,1 13 7 22 12 WNW 1024,1 10 0,0
16.01.2021 02:00:00 -6,7 -8,4 11 6 18 10 W 1024,5 10 0,0
16.01.2021 01:00:00 -6,7 -8,6 9 5 18 10 NW 1024,9 10 0,0
16.01.2021 00:00:00 -7,4 -9,3 9 5 25 14 WNW 1025,4 10 0,0
15.01.2021 23:00:00 -9,1 -10,9 5 3 11 6 W 1025,9 10 0,0
15.01.2021 22:00:00 -10,4 -12,0 9 5 14 8 W 1026,4 10 0,0
15.01.2021 21:00:00 -8,9 -11,0 4 2 7 4 - 1026,6 10 0,0
15.01.2021 20:00:00 -8,3 -10,4 2 1 14 8 - 1026,5 10 0,0
15.01.2021 19:00:00 -8,7 -10,8 8 4 14 8 N 1026,6 10 0,0
15.01.2021 18:00:00 -8,8 -11,3 5 3 14 8 WNW 1026,8 10 0,0
15.01.2021 17:00:00 -8,7 -11,5 5 3 14 8 NNW 1026,5 10 0,0
15.01.2021 16:00:00 -8,4 -11,5 11 6 18 10 WNW 1026,4 10 0,0
15.01.2021 15:00:00 -8,2 -11,4 9 5 18 10 NW 1026,4 10 0,0
15.01.2021 14:00:00 -8,6 -11,6 8 4 11 6 W 1026,4 10 0,0
15.01.2021 13:00:00 -9,1 -12,1 8 4 11 6 NNW 1026,8 10 0,0
15.01.2021 12:00:00 -10,0 -12,6 9 5 11 6 NNW 1027,0 10 0,0
15.01.2021 11:00:00 -10,9 -13,2 9 5 14 8 N 1027,2 10 0,0
15.01.2021 10:00:00 -11,0 -13,5 4 2 11 6 - 1026,8 10 0,0
15.01.2021 09:00:00 -11,4 -14,0 9 5 11 6 NNW 1026,4 10 0,0
15.01.2021 08:00:00 -11,5 -14,0 8 4 11 6 N 1026,2 10 0,0
15.01.2021 07:00:00 -11,2 -13,8 8 4 11 6 N 1025,9 10 0,0
15.01.2021 06:00:00 -10,8 -13,6 8 4 14 8 N 1025,8 10 0,0
15.01.2021 05:00:00 -10,2 -13,5 9 5 18 10 N 1025,9 10 0,0
15.01.2021 04:00:00 -10,1 -12,7 9 5 18 10 N 1025,8 10 0,0
15.01.2021 03:00:00 -9,8 -12,4 11 6 22 12 N 1025,8 10 0,0
15.01.2021 02:00:00 -9,4 -12,2 11 6 22 12 NNO 1025,6 10 0,0
15.01.2021 01:00:00 -9,2 -12,2 9 5 18 10 N 1025,7 10 0,0
15.01.2021 00:00:00 -8,7 -11,8 9 5 18 10 NNO 1025,8 10 0,0
14.01.2021 23:00:00 -8,3 -11,4 11 6 18 10 N 1025,8 10 0,0
14.01.2021 22:00:00 -6,8 -10,0 9 5 22 12 N 1025,5 10 0,0
14.01.2021 21:00:00 -6,0 -9,2 15 8 22 12 NNO 1025,3 10 0,0
14.01.2021 20:00:00 -5,6 -9,0 13 7 25 14 NNO 1025,0 10 0,0
14.01.2021 19:00:00 -5,0 -8,1 15 8 32 18 NNO 1024,9 10 0,0
14.01.2021 18:00:00 -4,8 -7,9 21 11 32 18 NNO 1024,9 10 0,0
14.01.2021 17:00:00 -4,7 -7,5 18 10 29 16 NNO 1024,7 10 0,0
14.01.2021 16:00:00 -4,5 -7,3 13 7 25 14 NNO 1024,7 10 0,0
14.01.2021 15:00:00 -4,1 -6,6 18 10 32 18 NNO 1024,1 10 0,0
14.01.2021 14:00:00 -3,7 -6,2 21 11 32 18 NNO 1023,6 10 0,0
14.01.2021 13:00:00 -3,5 -5,8 21 11 32 18 NO 1023,4 10 0,0
14.01.2021 12:00:00 -3,5 -5,7 21 11 40 21 NO 1023,2 10 0,0
14.01.2021 11:00:00 -3,5 -5,0 16 9 25 14 NO 1023,2 10 0,0
14.01.2021 10:00:00 -3,7 -5,4 15 8 25 14 NO 1022,9 10 0,0
14.01.2021 09:00:00 -3,7 -5,1 15 8 29 16 NNO 1022,4 10 0,0
14.01.2021 08:00:00 -3,8 -4,9 21 11 32 18 NNO 1021,4 10 0,0
14.01.2021 07:00:00 -3,6 -4,7 22 12 36 19 NO 1020,6 10 0,0
14.01.2021 06:00:00 -3,4 -4,8 22 12 40 21 NNO 1020,0 10 0,0
14.01.2021 05:00:00 -3,1 -4,7 22 12 43 23 NNO 1019,1 10 0,0
14.01.2021 04:00:00 -3,1 -4,4 29 16 47 25 NO 1018,3 10 0,0
14.01.2021 03:00:00 -2,7 -4,3 29 16 47 25 NNO 1017,5 10 0,0
14.01.2021 02:00:00 -2,6 -4,3 26 14 47 25 NNO 1016,6 10 0,0
14.01.2021 01:00:00 -2,0 -4,2 31 17 50 27 NO 1015,5 10 0,0
14.01.2021 00:00:00 -2,0 -4,3 28 15 47 25 NNO 1014,4 10 0,0
13.01.2021 23:00:00 -1,8 -4,0 22 12 36 19 NNO 1013,6 10 0,1
13.01.2021 22:00:00 -0,6 -2,8 26 14 43 23 NNO 1012,3 10 0,0
13.01.2021 21:00:00 -0,5 -2,9 24 13 47 25 NNO 1011,5 10 0,1
13.01.2021 20:00:00 -0,4 -2,8 29 16 47 25 NO 1010,7 10 0,0
13.01.2021 19:00:00 -0,4 -2,6 29 16 43 23 NO 1009,6 10 0,0
13.01.2021 18:00:00 0,0 -2,4 34 18 47 25 NO 1008,7 10 0,0
13.01.2021 17:00:00 -0,3 -1,7 26 14 40 21 NO 1007,9 6 0,0
13.01.2021 16:00:00 -0,9 -2,2 24 13 43 23 NO 1007,4 10 0,0
13.01.2021 15:00:00 -1,0 -2,4 31 17 47 25 NO 1006,6 10 0,0
13.01.2021 14:00:00 -1,0 -2,6 29 16 47 25 NO 1005,7 10 0,0
13.01.2021 13:00:00 -0,7 -2,1 26 14 40 21 NO 1004,8 10 0,0
13.01.2021 12:00:00 -0,9 -1,9 26 14 43 23 ONO 1004,5 10 0,3
13.01.2021 11:00:00 -0,9 -2,0 28 15 43 23 ONO 1004,0 10 0,0
13.01.2021 10:00:00 -1,6 -2,6 24 13 40 21 ONO 1003,1 10 0,0
13.01.2021 09:00:00 -1,5 -3,1 26 14 32 18 O 1002,2 10 0,0
13.01.2021 08:00:00 -1,8 -2,9 21 11 29 16 O 1001,2 10 0,0
13.01.2021 07:00:00 -2,5 -3,5 16 9 29 16 O 1000,5 10 0,0
13.01.2021 06:00:00 -3,1 -4,1 13 7 22 12 OZO 999,6 10 0,0
13.01.2021 05:00:00 -2,3 -3,6 15 8 22 12 O 998,9 10 0,0
13.01.2021 04:00:00 -2,1 -3,4 15 8 22 12 OZO 998,2 10 0,0
13.01.2021 03:00:00 -1,1 -2,5 9 5 18 10 ZO 997,5 10 0,0
13.01.2021 02:00:00 -1,4 -2,7 0 0 11 6 N 996,6 10 0,0
13.01.2021 01:00:00 -2,0 -3,7 5 3 11 6 ZZW 996,3 10 0,0
13.01.2021 00:00:00 -3,2 -4,8 8 4 7 4 ZZW 995,9 10 0,0
12.01.2021 23:00:00 -5,3 -6,3 0 0 11 6 N 995,5 10 0,0
12.01.2021 22:00:00 -3,9 -5,7 5 3 14 8 ZZW 995,1 10 0,0
12.01.2021 21:00:00 -3,6 -5,4 11 6 14 8 ZW 994,7 10 0,0
12.01.2021 20:00:00 -5,2 -6,6 8 4 14 8 ZW 994,1 10 0,0
12.01.2021 19:00:00 -4,4 -5,9 11 6 18 10 WZW 993,6 10 0,0
12.01.2021 18:00:00 -4,7 -6,4 11 6 14 8 ZW 993,3 10 0,0
12.01.2021 17:00:00 -3,4 -5,1 11 6 14 8 ZW 992,9 10 0,0
12.01.2021 16:00:00 -2,7 -4,7 13 7 22 12 ZW 992,8 10 0,0
12.01.2021 15:00:00 -2,0 -4,2 15 8 22 12 ZZW 992,1 10 0,0
12.01.2021 14:00:00 -2,0 -4,3 15 8 25 14 ZW 992,3 10 0,0
12.01.2021 13:00:00 -2,5 -5,0 16 9 25 14 ZZW 992,2 10 0,0
12.01.2021 12:00:00 -3,4 -6,2 9 5 25 14 Z 992,7 10 0,0
12.01.2021 11:00:00 -4,1 -7,7 11 6 29 16 Z 992,7 10 0,0
12.01.2021 10:00:00 -5,1 -7,1 22 12 32 18 W 992,5 10 0,0
12.01.2021 09:00:00 -4,9 -6,6 18 10 32 18 W 992,2 10 0,0
12.01.2021 08:00:00 -4,2 -6,2 24 13 40 21 W 991,7 10 0,0
12.01.2021 07:00:00 -3,3 -5,2 22 12 40 21 W 991,1 10 0,0
12.01.2021 06:00:00 -2,7 -4,3 22 12 32 18 W 990,9 10 0,0
12.01.2021 05:00:00 -2,1 -3,7 16 9 29 16 WNW 990,5 10 0,0

tt = temperatuur
td = dauwpunt
ff = windsnelheid
fx = windstoten
dd = windrichting
ppp = luchtdruk
vv = zicht
rr = neerslag

Weerstations in de omgeving